Home   Weather   Coimbra   Past weeks

Flag for Portugal Past Weather in Coimbra, Portugal — Yesterday and Last 2 Weeks

55 °F

Passing clouds.

Feels Like: 52 °F
Forecast: 48 / 63 °F
Wind: 15 mph from South

Location: Porto / Pedras Rubras

Current Time: Oct 23, 2016 at 11:16:29 PM

Latest Report: Oct 23, 2016 at 10:30 PM

Visibility: N/A

Pressure: 29.65 "Hg

Humidity: 82%

Dew Point: 50 °F

Location of CoimbraLocation

Past Weather in Coimbra — Graph


Coimbra Temperature Yesterday

Maximum temperature yesterday: 70 °F (at 3:30 PM)
Minimum temperature yesterday: 57 °F (at 11:00 PM)
Average temperature yesterday: 63 °F

High & Low Weather Summary for the Past Weeks

High77 °F (Oct 19, 3:30 PM)100% (Oct 8, 10:00 PM)30.27 "Hg (Oct 8, 10:00 PM)
Low48 °F (Oct 14, 7:00 AM)52% (Oct 14, 12:00 PM)29.45 "Hg (Oct 23, 5:00 AM)
Average61 °F91%29.90 "Hg
* Reported Oct 8 10:00 PM — Oct 23 10:00 PM, Coimbra, Weather by CustomWeather, © 2016

Note: Actual official high and low records may vary slightly from our data, if they occured in-between our weather recording intervals... More about our weather records


Coimbra Weather History for the Previous 24 Hours

Scroll right to see more
Time TempWeatherWind HumidityBarometerVisibility
10:00 PM
Sun, Oct 23
57 °FThunderstorms. Partly cloudy.10 mph82%29.65 "HgN/A
9:30 PM54 °FSprinkles. Partly cloudy.8 mph94%29.65 "HgN/A
9:00 PM54 °FPartly cloudy.5 mph94%29.65 "HgN/A
8:30 PM54 °FThunderstorms. Partly cloudy.8 mph94%29.62 "HgN/A
8:00 PM55 °FThunderstorms. Partly cloudy.3 mph88%29.62 "HgN/A
7:30 PM55 °FThunderstorms. Partly cloudy.10 mph88%29.62 "HgN/A
7:00 PM55 °FPartly cloudy.9 mph94%29.59 "HgN/A
6:30 PM55 °FBroken clouds.10 mph94%29.59 "HgN/A
6:00 PM55 °FSprinkles. Broken clouds.10 mph88%29.59 "HgN/A
5:30 PM55 °FThunderstorms. Broken clouds.15 mph88%29.59 "Hg5 mi
5:00 PM57 °FThunderstorms. Broken clouds.14 mph82%29.59 "HgN/A
4:30 PM59 °FSprinkles. Partly sunny.14 mph88%29.59 "HgN/A
4:00 PM57 °FBroken clouds.13 mph88%29.59 "HgN/A
3:30 PM59 °FSprinkles. Scattered clouds.15 mph88%29.59 "HgN/A
3:00 PM59 °FSprinkles. Broken clouds.14 mph82%29.59 "HgN/A
2:30 PM61 °FScattered showers. Broken clouds.22 mph83%29.56 "HgN/A
2:00 PM61 °FSprinkles. Partly sunny.22 mph83%29.56 "Hg5 mi
1:30 PM63 °FPassing clouds.17 mph77%29.56 "HgN/A
1:00 PM63 °FPassing clouds.20 mph77%29.56 "HgN/A
12:30 PM59 °FPassing clouds.20 mph82%29.56 "HgN/A
12:00 PM59 °FPartly sunny.17 mph94%29.56 "HgN/A
11:30 AM61 °FPartly sunny.21 mph83%29.56 "HgN/A
11:00 AM61 °FPassing clouds.17 mph83%29.56 "HgN/A
10:30 AM61 °FPassing clouds.17 mph83%29.53 "HgN/A
10:00 AM59 °FPassing clouds.17 mph88%29.53 "HgN/A
9:30 AM61 °FPassing clouds.16 mph83%29.53 "HgN/A
9:00 AM59 °FPassing clouds.14 mph82%29.50 "HgN/A
8:30 AM61 °FPassing clouds.14 mph83%29.50 "HgN/A
8:00 AM57 °FScattered showers. Passing clouds.13 mph94%29.50 "HgN/A
7:30 AM57 °FLots of rain. Partly cloudy.9 mph100%29.50 "Hg4 mi
7:00 AM55 °FSprinkles. Partly cloudy.8 mph94%29.47 "Hg6 mi
6:30 AM54 °FRain showers. Partly cloudy.8 mph94%29.47 "HgN/A
6:00 AM59 °FThunderstorms. Passing clouds.18 mph94%29.47 "HgN/A
5:30 AM57 °FPassing clouds.15 mph94%29.47 "HgN/A
5:00 AM57 °FPassing clouds.13 mph88%29.45 "HgN/A
4:30 AM57 °FPassing clouds.16 mph88%29.47 "HgN/A
4:00 AM59 °FPassing clouds.14 mph88%29.47 "HgN/A
3:30 AM57 °FPassing clouds.12 mph88%29.47 "HgN/A
3:00 AM57 °FPassing clouds.13 mph94%29.47 "HgN/A
2:30 AM57 °FPassing clouds.10 mph94%29.47 "HgN/A
2:00 AM57 °FPassing clouds.12 mph94%29.50 "HgN/A
1:30 AM57 °FLight rain. Passing clouds.12 mph100%29.50 "HgN/A
1:00 AM57 °FRain. Passing clouds.13 mph100%29.53 "Hg6 mi
12:30 AM57 °FRain. Passing clouds.7 mph100%29.50 "HgN/A
12:00 AM59 °FRain. Passing clouds.8 mph100%29.53 "Hg4 mi
11:30 PM
Sat, Oct 22
57 °FHeavy rain. Partly cloudy.6 mph100%29.50 "Hg3 mi
11:00 PM57 °FStrong thunderstorms. Partly cloudy.12 mph100%29.47 "Hg3 mi
Weather by CustomWeather, © 2016

See weather overviewHow to use our weather pages